﻿測定場所 (Monitoring sites),日付 (Measurement date),時間 (Measurement time),線量率 最大値 (max) μGy/h,線量率 最小値 (min) μGy/h,線量率 平均値 (average) μGy/h,
江戸川 (Edogawa),2016-01-03,23:01～24:00,0.0645,0.0573,0.0607,
江戸川 (Edogawa),2016-01-03,22:01～23:00,0.0631,0.0574,0.0601,
江戸川 (Edogawa),2016-01-03,21:01～22:00,0.0625,0.0557,0.0600,
江戸川 (Edogawa),2016-01-03,20:01～21:00,0.0633,0.0584,0.0604,
江戸川 (Edogawa),2016-01-03,19:01～20:00,0.0630,0.0551,0.0596,
江戸川 (Edogawa),2016-01-03,18:01～19:00,0.0618,0.0556,0.0590,
江戸川 (Edogawa),2016-01-03,17:01～18:00,0.0634,0.0562,0.0599,
江戸川 (Edogawa),2016-01-03,16:01～17:00,0.0650,0.0571,0.0599,
江戸川 (Edogawa),2016-01-03,15:01～16:00,0.0634,0.0566,0.0604,
江戸川 (Edogawa),2016-01-03,14:01～15:00,0.0649,0.0574,0.0608,
江戸川 (Edogawa),2016-01-03,13:01～14:00,0.0652,0.0581,0.0611,
江戸川 (Edogawa),2016-01-03,12:01～13:00,0.0646,0.0569,0.0608,
江戸川 (Edogawa),2016-01-03,11:01～12:00,0.0653,0.0592,0.0615,
江戸川 (Edogawa),2016-01-03,10:01～11:00,0.0645,0.0578,0.0612,
江戸川 (Edogawa),2016-01-03,09:01～10:00,0.0640,0.0587,0.0608,
江戸川 (Edogawa),2016-01-03,08:01～09:00,0.0636,0.0571,0.0605,
江戸川 (Edogawa),2016-01-03,07:01～08:00,0.0646,0.0569,0.0604,
江戸川 (Edogawa),2016-01-03,06:01～07:00,0.0641,0.0565,0.0601,
江戸川 (Edogawa),2016-01-03,05:01～06:00,0.0637,0.0567,0.0601,
江戸川 (Edogawa),2016-01-03,04:01～05:00,0.0626,0.0574,0.0598,
江戸川 (Edogawa),2016-01-03,03:01～04:00,0.0632,0.0571,0.0599,
江戸川 (Edogawa),2016-01-03,02:01～03:00,0.0637,0.0565,0.0602,
江戸川 (Edogawa),2016-01-03,01:01～02:00,0.0628,0.0568,0.0600,
江戸川 (Edogawa),2016-01-03,00:01～01:00,0.0623,0.0563,0.0596,
江戸川 (Edogawa),2016-01-02,23:01～24:00,0.0642,0.0556,0.0594,
江戸川 (Edogawa),2016-01-02,22:01～23:00,0.0639,0.0556,0.0594,
江戸川 (Edogawa),2016-01-02,21:01～22:00,0.0628,0.0559,0.0592,
江戸川 (Edogawa),2016-01-02,20:01～21:00,0.0625,0.0558,0.0589,
江戸川 (Edogawa),2016-01-02,19:01～20:00,0.0633,0.0573,0.0595,
江戸川 (Edogawa),2016-01-02,18:01～19:00,0.0643,0.0555,0.0597,
江戸川 (Edogawa),2016-01-02,17:01～18:00,0.0634,0.0566,0.0594,
江戸川 (Edogawa),2016-01-02,16:01～17:00,0.0648,0.0565,0.0599,
江戸川 (Edogawa),2016-01-02,15:01～16:00,0.0635,0.0560,0.0603,
江戸川 (Edogawa),2016-01-02,14:01～15:00,0.0638,0.0569,0.0601,
江戸川 (Edogawa),2016-01-02,13:01～14:00,0.0629,0.0562,0.0597,
江戸川 (Edogawa),2016-01-02,12:01～13:00,0.0636,0.0569,0.0601,
江戸川 (Edogawa),2016-01-02,11:01～12:00,0.0631,0.0567,0.0601,
江戸川 (Edogawa),2016-01-02,10:01～11:00,0.0632,0.0573,0.0599,
江戸川 (Edogawa),2016-01-02,09:01～10:00,0.0628,0.0554,0.0596,
江戸川 (Edogawa),2016-01-02,08:01～09:00,0.0633,0.0571,0.0595,
江戸川 (Edogawa),2016-01-02,07:01～08:00,0.0623,0.0552,0.0590,
江戸川 (Edogawa),2016-01-02,06:01～07:00,0.0627,0.0557,0.0588,
江戸川 (Edogawa),2016-01-02,05:01～06:00,0.0624,0.0553,0.0590,
江戸川 (Edogawa),2016-01-02,04:01～05:00,0.0617,0.0562,0.0592,
江戸川 (Edogawa),2016-01-02,03:01～04:00,0.0634,0.0558,0.0592,
江戸川 (Edogawa),2016-01-02,02:01～03:00,0.0624,0.0559,0.0593,
江戸川 (Edogawa),2016-01-02,01:01～02:00,0.0629,0.0554,0.0586,
江戸川 (Edogawa),2016-01-02,00:01～01:00,0.0622,0.0559,0.0586,
江戸川 (Edogawa),2016-01-01,23:01～24:00,0.0618,0.0543,0.0587,
江戸川 (Edogawa),2016-01-01,22:01～23:00,0.0620,0.0552,0.0588,
江戸川 (Edogawa),2016-01-01,21:01～22:00,0.0621,0.0558,0.0588,
江戸川 (Edogawa),2016-01-01,20:01～21:00,0.0623,0.0551,0.0587,
江戸川 (Edogawa),2016-01-01,19:01～20:00,0.0621,0.0552,0.0587,
江戸川 (Edogawa),2016-01-01,18:01～19:00,0.0616,0.0554,0.0587,
江戸川 (Edogawa),2016-01-01,17:01～18:00,0.0618,0.0554,0.0589,
江戸川 (Edogawa),2016-01-01,16:01～17:00,0.0625,0.0546,0.0588,
江戸川 (Edogawa),2016-01-01,15:01～16:00,0.0625,0.0560,0.0589,
江戸川 (Edogawa),2016-01-01,14:01～15:00,0.0626,0.0557,0.0593,
江戸川 (Edogawa),2016-01-01,13:01～14:00,0.0623,0.0562,0.0593,
江戸川 (Edogawa),2016-01-01,12:01～13:00,0.0628,0.0568,0.0592,
江戸川 (Edogawa),2016-01-01,11:01～12:00,0.0626,0.0563,0.0590,
江戸川 (Edogawa),2016-01-01,10:01～11:00,0.0621,0.0564,0.0587,
江戸川 (Edogawa),2016-01-01,09:01～10:00,0.0634,0.0560,0.0582,
江戸川 (Edogawa),2016-01-01,08:01～09:00,0.0619,0.0546,0.0586,
江戸川 (Edogawa),2016-01-01,07:01～08:00,0.0609,0.0548,0.0579,
江戸川 (Edogawa),2016-01-01,06:01～07:00,0.0633,0.0553,0.0587,
江戸川 (Edogawa),2016-01-01,05:01～06:00,0.0625,0.0554,0.0589,
江戸川 (Edogawa),2016-01-01,04:01～05:00,0.0615,0.0554,0.0590,
江戸川 (Edogawa),2016-01-01,03:01～04:00,0.0613,0.0554,0.0587,
江戸川 (Edogawa),2016-01-01,02:01～03:00,0.0625,0.0570,0.0594,
江戸川 (Edogawa),2016-01-01,01:01～02:00,0.0627,0.0562,0.0594,
江戸川 (Edogawa),2016-01-01,00:01～01:00,0.0615,0.0547,0.0583,
江戸川 (Edogawa),2015-12-31,23:01～24:00,0.0604,0.0552,0.0580,
江戸川 (Edogawa),2015-12-31,22:01～23:00,0.0612,0.0539,0.0583,
江戸川 (Edogawa),2015-12-31,21:01～22:00,0.0617,0.0554,0.0583,
江戸川 (Edogawa),2015-12-31,20:01～21:00,0.0618,0.0553,0.0586,
江戸川 (Edogawa),2015-12-31,19:01～20:00,0.0616,0.0557,0.0583,
江戸川 (Edogawa),2015-12-31,18:01～19:00,0.0621,0.0548,0.0586,
江戸川 (Edogawa),2015-12-31,17:01～18:00,0.0627,0.0549,0.0586,
江戸川 (Edogawa),2015-12-31,16:01～17:00,0.0626,0.0543,0.0587,
江戸川 (Edogawa),2015-12-31,15:01～16:00,0.0618,0.0552,0.0586,
江戸川 (Edogawa),2015-12-31,14:01～15:00,0.0631,0.0552,0.0589,
江戸川 (Edogawa),2015-12-31,13:01～14:00,0.0629,0.0546,0.0597,
江戸川 (Edogawa),2015-12-31,12:01～13:00,0.0632,0.0569,0.0596,
江戸川 (Edogawa),2015-12-31,11:01～12:00,0.0631,0.0559,0.0588,
江戸川 (Edogawa),2015-12-31,10:01～11:00,0.0624,0.0562,0.0590,
江戸川 (Edogawa),2015-12-31,09:01～10:00,0.0620,0.0533,0.0591,
江戸川 (Edogawa),2015-12-31,08:01～09:00,0.0631,0.0569,0.0593,
江戸川 (Edogawa),2015-12-31,07:01～08:00,0.0643,0.0550,0.0589,
江戸川 (Edogawa),2015-12-31,06:01～07:00,0.0625,0.0543,0.0590,
江戸川 (Edogawa),2015-12-31,05:01～06:00,0.0623,0.0553,0.0587,
江戸川 (Edogawa),2015-12-31,04:01～05:00,0.0614,0.0530,0.0585,
江戸川 (Edogawa),2015-12-31,03:01～04:00,0.0628,0.0552,0.0589,
江戸川 (Edogawa),2015-12-31,02:01～03:00,0.0623,0.0551,0.0584,
江戸川 (Edogawa),2015-12-31,01:01～02:00,0.0620,0.0560,0.0588,
江戸川 (Edogawa),2015-12-31,00:01～01:00,0.0632,0.0551,0.0583,
江戸川 (Edogawa),2015-12-30,23:01～24:00,0.0608,0.0555,0.0584,
江戸川 (Edogawa),2015-12-30,22:01～23:00,0.0617,0.0554,0.0586,
江戸川 (Edogawa),2015-12-30,21:01～22:00,0.0617,0.0550,0.0583,
江戸川 (Edogawa),2015-12-30,20:01～21:00,0.0616,0.0552,0.0586,
江戸川 (Edogawa),2015-12-30,19:01～20:00,0.0612,0.0545,0.0584,
江戸川 (Edogawa),2015-12-30,18:01～19:00,0.0633,0.0552,0.0585,
江戸川 (Edogawa),2015-12-30,17:01～18:00,0.0624,0.0555,0.0589,
江戸川 (Edogawa),2015-12-30,16:01～17:00,0.0627,0.0556,0.0590,
江戸川 (Edogawa),2015-12-30,15:01～16:00,0.0620,0.0550,0.0592,
江戸川 (Edogawa),2015-12-30,14:01～15:00,0.0618,0.0565,0.0593,
江戸川 (Edogawa),2015-12-30,13:01～14:00,0.0633,0.0560,0.0595,
江戸川 (Edogawa),2015-12-30,12:01～13:00,0.0626,0.0563,0.0590,
江戸川 (Edogawa),2015-12-30,11:01～12:00,0.0636,0.0552,0.0594,
江戸川 (Edogawa),2015-12-30,10:01～11:00,0.0625,0.0552,0.0590,
江戸川 (Edogawa),2015-12-30,09:01～10:00,0.0621,0.0546,0.0587,
江戸川 (Edogawa),2015-12-30,08:01～09:00,0.0629,0.0553,0.0587,
江戸川 (Edogawa),2015-12-30,07:01～08:00,0.0634,0.0557,0.0589,
江戸川 (Edogawa),2015-12-30,06:01～07:00,0.0642,0.0545,0.0589,
江戸川 (Edogawa),2015-12-30,05:01～06:00,0.0627,0.0554,0.0586,
江戸川 (Edogawa),2015-12-30,04:01～05:00,0.0613,0.0551,0.0583,
江戸川 (Edogawa),2015-12-30,03:01～04:00,0.0610,0.0559,0.0585,
江戸川 (Edogawa),2015-12-30,02:01～03:00,0.0615,0.0548,0.0581,
江戸川 (Edogawa),2015-12-30,01:01～02:00,0.0624,0.0548,0.0582,
江戸川 (Edogawa),2015-12-30,00:01～01:00,0.0620,0.0548,0.0583,
江戸川 (Edogawa),2015-12-29,23:01～24:00,0.0614,0.0547,0.0577,
江戸川 (Edogawa),2015-12-29,22:01～23:00,0.0614,0.0543,0.0576,
江戸川 (Edogawa),2015-12-29,21:01～22:00,0.0624,0.0538,0.0575,
江戸川 (Edogawa),2015-12-29,20:01～21:00,0.0625,0.0551,0.0580,
江戸川 (Edogawa),2015-12-29,19:01～20:00,0.0618,0.0543,0.0580,
江戸川 (Edogawa),2015-12-29,18:01～19:00,0.0611,0.0547,0.0580,
江戸川 (Edogawa),2015-12-29,17:01～18:00,0.0614,0.0553,0.0582,
江戸川 (Edogawa),2015-12-29,16:01～17:00,0.0611,0.0538,0.0584,
江戸川 (Edogawa),2015-12-29,15:01～16:00,0.0615,0.0561,0.0585,
江戸川 (Edogawa),2015-12-29,14:01～15:00,0.0618,0.0554,0.0590,
江戸川 (Edogawa),2015-12-29,13:01～14:00,0.0629,0.0553,0.0588,
江戸川 (Edogawa),2015-12-29,12:01～13:00,0.0617,0.0551,0.0586,
江戸川 (Edogawa),2015-12-29,11:01～12:00,0.0621,0.0563,0.0591,
江戸川 (Edogawa),2015-12-29,10:01～11:00,0.0618,0.0559,0.0588,
江戸川 (Edogawa),2015-12-29,09:01～10:00,0.0617,0.0556,0.0588,
江戸川 (Edogawa),2015-12-29,08:01～09:00,0.0615,0.0548,0.0587,
江戸川 (Edogawa),2015-12-29,07:01～08:00,0.0627,0.0550,0.0587,
江戸川 (Edogawa),2015-12-29,06:01～07:00,0.0623,0.0542,0.0588,
江戸川 (Edogawa),2015-12-29,05:01～06:00,0.0616,0.0556,0.0585,
江戸川 (Edogawa),2015-12-29,04:01～05:00,0.0627,0.0561,0.0587,
江戸川 (Edogawa),2015-12-29,03:01～04:00,0.0616,0.0550,0.0588,
江戸川 (Edogawa),2015-12-29,02:01～03:00,0.0619,0.0554,0.0589,
江戸川 (Edogawa),2015-12-29,01:01～02:00,0.0637,0.0554,0.0589,
江戸川 (Edogawa),2015-12-29,00:01～01:00,0.0618,0.0556,0.0584,
江戸川 (Edogawa),2015-12-28,23:01～24:00,0.0625,0.0553,0.0583,
江戸川 (Edogawa),2015-12-28,22:01～23:00,0.0622,0.0543,0.0585,
江戸川 (Edogawa),2015-12-28,21:01～22:00,0.0619,0.0553,0.0584,
江戸川 (Edogawa),2015-12-28,20:01～21:00,0.0618,0.0554,0.0584,
江戸川 (Edogawa),2015-12-28,19:01～20:00,0.0621,0.0546,0.0581,
江戸川 (Edogawa),2015-12-28,18:01～19:00,0.0621,0.0550,0.0583,
江戸川 (Edogawa),2015-12-28,17:01～18:00,0.0607,0.0560,0.0584,
江戸川 (Edogawa),2015-12-28,16:01～17:00,0.0608,0.0559,0.0582,
江戸川 (Edogawa),2015-12-28,15:01～16:00,0.0625,0.0561,0.0586,
江戸川 (Edogawa),2015-12-28,14:01～15:00,0.0627,0.0565,0.0588,
江戸川 (Edogawa),2015-12-28,13:01～14:00,0.0619,0.0549,0.0589,
江戸川 (Edogawa),2015-12-28,12:01～13:00,0.0628,0.0549,0.0587,
江戸川 (Edogawa),2015-12-28,11:01～12:00,0.0625,0.0563,0.0590,
江戸川 (Edogawa),2015-12-28,10:01～11:00,0.0612,0.0557,0.0581,
江戸川 (Edogawa),2015-12-28,09:01～10:00,0.0614,0.0544,0.0581,
江戸川 (Edogawa),2015-12-28,08:01～09:00,0.0601,0.0550,0.0579,
江戸川 (Edogawa),2015-12-28,07:01～08:00,0.0608,0.0551,0.0578,
江戸川 (Edogawa),2015-12-28,06:01～07:00,0.0608,0.0554,0.0579,
江戸川 (Edogawa),2015-12-28,05:01～06:00,0.0603,0.0527,0.0577,
江戸川 (Edogawa),2015-12-28,04:01～05:00,0.0619,0.0538,0.0576,
江戸川 (Edogawa),2015-12-28,03:01～04:00,0.0602,0.0548,0.0576,
江戸川 (Edogawa),2015-12-28,02:01～03:00,0.0606,0.0537,0.0578,
江戸川 (Edogawa),2015-12-28,01:01～02:00,0.0611,0.0543,0.0579,
江戸川 (Edogawa),2015-12-28,00:01～01:00,0.0609,0.0543,0.0575,
